Regional Weather Roundup
Issued by NWS

Home | Current Version | Previous Version | Text Only | Print | Product List | Glossary On
Versions: 1 2 3 4 5 6 7 8 9 10 11 12 13 14 15 16 17 18 19 20 21 22 23 24 25 26 27 28 29 30 31 32 33 34 35 36 37 38 39 40 41 42 43 44 45 46 47 48 49 50
000
ASUS44 KBMX 032210
RWRAL

ALABAMA REGIONAL WEATHER ROUNDUP
NATIONAL WEATHER SERVICE BIRMINGHAM AL
500 PM CDT SUN MAY 03 2015

NOTE: "FAIR" INDICATES FEW OR NO CLOUDS BELOW 12,000 FEET
WITH NO SIGNIFICANT WEATHER AND/OR OBSTRUCTIONS TO VISIBILITY.

THE REMARK "TC" DENOTES TEMPERATURE IN DEGREES CELSIUS.

ALZ001>011-014-016>018-020-032300-
NORTH ALABAMA

CITY           SKY/WX    TMP DP  RH WIND       PRES   REMARKS
MUSCLE SHOALS  MOSUNNY   80  48  32 SW7       30.09F
HUNTSVILLE     MOSUNNY   81  49  32 SW5       30.10S
DECATUR        SUNNY     77  51  40 W5        30.10S
HALEYVILLE       N/A     79  49  34 MISG      30.12F
GADSDEN        MOSUNNY  N/A N/A N/A SW3       30.09F
$$

ALZ012-013-022-023-030>036-040>044-032300-
WEST CENTRAL ALABAMA

CITY           SKY/WX    TMP DP  RH WIND       PRES   REMARKS
TUSCALOOSA     MOSUNNY   80  49  33 S5        30.09F
$$

ALZ015-024>027-033>036-040>044-032300-
CENTRAL ALABAMA

CITY           SKY/WX    TMP DP  RH WIND       PRES   REMARKS
BIRMINGHAM     MOSUNNY   80  47  31 S10       30.12F
MONTGOMERY     SUNNY     82  47  29 SW6       30.11S
SHELBY CO ARPT MOSUNNY  N/A N/A N/A SW5       30.11S
MAXWELL AFB    MOSUNNY   80  49  33 S3        30.10S
GREENVILLE     FAIR      79  47  32 SW5       30.10S
$$

ALZ019-021-028-029-037-038-045>048-032300-
EAST CENTRAL ALABAMA

CITY           SKY/WX    TMP DP  RH WIND       PRES   REMARKS
ANNISTON       MOSUNNY   79  48  33 S3        30.11S
ALEXANDER CITY SUNNY     78  42  27 SW8       30.13S
AUBURN         SUNNY    N/A N/A N/A MISG        N/A
$$

ALZ051>064-032300-
SOUTHWEST ALABAMA

CITY           SKY/WX    TMP DP  RH WIND       PRES   REMARKS
MOBILE         MOSUNNY   77  51  40 SE10      30.11S
BROOKLEY FIELD MOSUNNY   76  60  57 S9        30.12S
EVERGREEN      SUNNY     80  52  37 S7        30.10S
$$

ALZ049-050-065>069-032300-
SOUTHEAST ALABAMA

CITY           SKY/WX    TMP DP  RH WIND       PRES   REMARKS
DOTHAN         MOSUNNY   77  53  43 CALM      30.15S
OZARK          MOSUNNY   82  47  29 SW6       30.10F
TROY           MOSUNNY   78  53  41 SE5       30.12S
EUFAULA        FAIR      79  49  34 SE7       30.10S
$$



USA.gov is the U.S. government's official web portal to all federal, state and local government web resources and services.